[[{"header":{"parameterUnit":"m.s-1","parameterCategory":2,"la1":30.2991,"la2":30.254,"lo1":-89.0895,"lo2":-89.0444,"dy":0.0017,"dx":0.0017,"nx":28,"ny":28,"refTime":"2024-04-15T09:00:00:Z","depth":"0","parameterNumber":2,"parameterNumberName":"U-component_of_CURRENTS"},"data":[0,0,0,0,0,0,0,0,0,0,0,0,0,0,0,0,0,0,0,0,0,0,0,0,0,0,0,0,0,0,0,0,0,0,0,0,0,0,0,0,0,0,0,0,0,0,0,0,0,0,0,0,0,0,0,0,0,0,0.3181,0.3183,0,0.3286,0.3287,0.3287,0.3293,0.3292,0.3291,0.329,0.3298,0.3299,0.33,0,0,0,0,0,0,0,0,0,0,0,0,0,0.2976,0.2979,0.3181,0.3183,0.3185,0.3286,0.3287,0.3288,0.3293,0.3292,0.3291,0.329,0.3298,0.3299,0.33,0,0,0,0,0,0,0,0,0,0,0,0,0,0.3067,0.298,0.3181,0.3203,0.3206,0.3285,0.3287,0.3288,0.3293,0.3292,0.329,0.3289,0.3297,0.3299,0.33,0.3334,0,0,0.3305,0.3306,0,0,0,0,0,0,0,0,0.3062,0.3074,0.3198,0.3201,0.3205,0.3279,0.3217,0.33,0.3293,0.3255,0.329,0.3289,0.3286,0.3289,0.3306,0.3335,0.3335,0.3305,0.3306,0.3307,0.3307,0,0,0,0,0,0,0,0.3055,0.3069,0.3218,0.32,0.3204,0.3204,0.3215,0.3233,0.3271,0.3259,0.326,0.3279,0.3287,0.3305,0.3306,0.3335,0.3305,0.3306,0.3307,0.3308,0.3392,0.3393,0,0,0,0,0,0,0.3054,0.3064,0.3215,0.3222,0.3134,0.3209,0.3221,0.3253,0.3273,0.3278,0.328,0.3279,0.3303,0.3305,0.3307,0.3345,0.3307,0.3308,0.3309,0.339,0.3392,0.3393,0,0,0,0,0,0,0.3049,0.3067,0.3211,0.3147,0.3166,0.3214,0.3249,0.3256,0.3275,0.3292,0.3292,0.3293,0.3302,0.3305,0.3338,0.3345,0.3309,0.331,0.3389,0.3391,0.3393,0.3422,0,0,0,0,0,0,0.3043,0.3065,0.3088,0.3148,0.317,0.3258,0.3251,0.3259,0.3291,0.329,0.3304,0.3303,0.3301,0.3336,0.334,0.3346,0.3311,0.3387,0.339,0.3392,0.342,0.3425,0.343,0,0,0,0,0,0.3036,0.3077,0.3089,0.3108,0.3201,0.326,0.3271,0.3296,0.3292,0.3307,0.3325,0.3303,0.3354,0.334,0.3343,0.335,0.3386,0.3389,0.3392,0.3418,0.3424,0.343,0,0,0,0,0,0,0.3004,0.3084,0.3098,0.3163,0.3206,0.3262,0.329,0.3302,0.333,0.3329,0.3331,0.3333,0.3362,0.3361,0.3345,0.3383,0.3362,0.3366,0.338,0.3387,0.3392,0.3375,0.3312,0,0,0,0,0,0.3009,0.3058,0.3123,0.3173,0.3199,0.3242,0.3271,0.3288,0.3324,0.3335,0.3344,0.3358,0.338,0.3386,0.3404,0.3432,0.3475,0.3436,0.3441,0.3445,0.3436,0.3487,0.3495,0.3403,0.3403,0.3403,0,0,0.3012,0.3062,0.3091,0.3169,0.3207,0.3244,0.3255,0.3304,0.3323,0.3331,0.3358,0.3379,0.3394,0.3425,0.3436,0.3421,0.3516,0.3449,0.3452,0.3441,0.3491,0.3499,0.3507,0.3405,0.3405,0.3405,0,0,0.303,0.3087,0.3124,0.3163,0.3225,0.3255,0.3268,0.3323,0.3336,0.3375,0.3385,0.3413,0.3441,0.3456,0.3466,0.3511,0.3543,0.3514,0.3522,0.3572,0.358,0.3586,0.3744,0.3765,0.3512,0.3513,0.3513,0,0.3023,0.3082,0.3141,0.3179,0.3209,0.3257,0.3285,0.3318,0.337,0.3386,0.3382,0.3443,0.3452,0.3494,0.3507,0.3519,0.359,0.3496,0.3578,0.3585,0.3591,0.3751,0.3773,0.3514,0.3514,0.3514,0.3514,0,0.3062,0.3103,0.3131,0.3191,0.3232,0.327,0.332,0.3353,0.3372,0.3399,0.3444,0.3472,0.3506,0.3514,0.3523,0.3574,0.3633,0.3582,0.3559,0.3602,0.3769,0.3792,0.3517,0.3516,0.3516,0.3515,0,0,0.3047,0.3136,0.3141,0.3164,0.3237,0.3275,0.3318,0.337,0.3404,0.3437,0.3475,0.3511,0.3532,0.3546,0.3565,0.3598,0.3736,0.361,0.3611,0.3764,0.3942,0.3946,0.3973,0.3697,0.3699,0.37,0.4074,0,0.3047,0.3104,0.315,0.3196,0.3229,0.3285,0.3323,0.3377,0.3423,0.3476,0.3505,0.3554,0.3544,0.3575,0.3607,0.3703,0.3782,0.3645,0.3878,0.3887,0.388,0.3991,0.3804,0.4114,0.4096,0.41,0.4102,0,0.3059,0.3096,0.3134,0.3199,0.3219,0.3251,0.3329,0.3373,0.3458,0.349,0.3543,0.3588,0.3679,0.3633,0.3832,0.3752,0.385,0.3914,0.3929,0.3921,0.3928,0.4049,0.4155,0.3981,0.4137,0.4134,0.4132,0,0.3014,0.3082,0.3106,0.3131,0.3215,0.3238,0.3285,0.3373,0.3429,0.3514,0.3577,0.3665,0.3758,0.3844,0.4006,0.3932,0.4233,0.4149,0.4264,0.4272,0.4149,0.414,0.4093,0.4272,0.4271,0.427,0.4269,0,0.2996,0.3016,0.3088,0.3104,0.3146,0.3214,0.3273,0.3332,0.3434,0.3521,0.3587,0.3693,0.3805,0.399,0.4075,0.429,0.4314,0.4307,0.4352,0.4166,0.4154,0.4021,0.3941,0.4285,0.4281,0.4279,0.4276,0,0.2948,0.299,0.303,0.3104,0.3128,0.3164,0.3272,0.3329,0.3429,0.3552,0.3592,0.3784,0.4022,0.4179,0.4396,0.4428,0.4464,0.4647,0.4484,0.4498,0.4358,0.4287,0.4246,0.4126,0.4829,0.4831,0.4833,0,0.2927,0.2942,0.3021,0.3054,0.3085,0.3149,0.32,0.3304,0.3377,0.3616,0.368,0.3954,0.4124,0.4492,0.4603,0.4819,0.4597,0.4744,0.4509,0.4357,0.4313,0.4138,0.4025,0.4431,0.4429,0.4428,0.4426,0,0.2898,0.2929,0.2974,0.3049,0.3098,0.3138,0.322,0.328,0.3431,0.3549,0.3763,0.3925,0.4287,0.4417,0.4692,0.4766,0.4464,0.4721,0.4563,0.4003,0.3808,0.3711,0.4268,0.4414,0.4415,0.4416,0.4417,0.4417,0.2892,0.2924,0.3007,0.306,0.311,0.314,0.3133,0.3246,0.3359,0.3519,0.3747,0.3936,0.4166,0.4512,0.456,0.4472,0.446,0.4296,0.4254,0.4115,0.3854,0.4442,0.4603,0.4605,0.4607,0.4608,0.461,0,0.2914,0.2963,0.3019,0.3077,0.3082,0.3112,0.3155,0.313,0.3209,0.3432,0.3595,0.3846,0.3969,0.4096,0.414,0.4004,0.3802,0.3863,0.3509,0.344,0.3973,0.3799,0.3787,0.3787,0.3787,0.3787,0.3787,0.3788,0.2944,0.3009,0.3028,0.304,0.3044,0.299,0.2965,0.2958,0.3053,0.3179,0.331,0.3497,0.3698,0.3769,0.3627,0.3537,0.3223,0.3119,0.3113,0.3402,0.3434,0.3465,0.3276,0.3154,0.3154,0.2402,0.2396,0.2392]},{"header":{"parameterUnit":"m.s-1","parameterCategory":2,"la1":30.2991,"la2":30.254,"lo1":-89.0895,"lo2":-89.0444,"dy":0.0017,"dx":0.0017,"nx":28,"ny":28,"refTime":"2024-04-15T09:00:00:Z","depth":"0","parameterNumber":3,"parameterNumberName":"V-component_of_CURRENTS"},"data":[0,0,0,0,0,0,0,0,0,0,0,0,0,0,0,0,0,0,0,0,0,0,0,0,0,0,0,0,0,0,0,0,0,0,0,0,0,0,0,0,0,0,0,0,0,0,0,0,0,0,0,0,0,0,0,0,0,0,-0.0195,-0.0196,0,-0.027,-0.0271,-0.0272,-0.0294,-0.0294,-0.0293,-0.0293,-0.0397,-0.04,-0.0403,0,0,0,0,0,0,0,0,0,0,0,0,0,-0.0116,-0.0117,-0.0195,-0.0196,-0.0197,-0.027,-0.0271,-0.0272,-0.0294,-0.0294,-0.0293,-0.0293,-0.0396,-0.04,-0.0403,0,0,0,0,0,0,0,0,0,0,0,0,0,-0.0166,-0.0118,-0.0194,-0.0217,-0.022,-0.027,-0.0271,-0.0272,-0.0294,-0.0294,-0.0293,-0.0293,-0.0395,-0.0399,-0.0404,-0.0441,0,0,-0.0418,-0.042,0,0,0,0,0,0,0,0,-0.0163,-0.0169,-0.0213,-0.0216,-0.0219,-0.0273,-0.0281,-0.033,-0.0294,-0.0265,-0.0293,-0.0293,-0.0359,-0.0366,-0.038,-0.0446,-0.0451,-0.0418,-0.0421,-0.0423,-0.0424,0,0,0,0,0,0,0,-0.016,-0.0166,-0.0224,-0.0214,-0.0218,-0.024,-0.0246,-0.0291,-0.0314,-0.0268,-0.027,-0.028,-0.0361,-0.0376,-0.0383,-0.0452,-0.0418,-0.0422,-0.0425,-0.0427,-0.0582,-0.0583,0,0,0,0,0,0,-0.015,-0.0163,-0.0221,-0.0226,-0.019,-0.0241,-0.0248,-0.0255,-0.0313,-0.0321,-0.028,-0.028,-0.0368,-0.0377,-0.0387,-0.0409,-0.0423,-0.0427,-0.043,-0.0581,-0.0582,-0.0584,0,0,0,0,0,0,-0.0148,-0.0155,-0.0218,-0.0197,-0.0206,-0.0243,-0.0251,-0.0257,-0.0273,-0.0322,-0.033,-0.0289,-0.0368,-0.038,-0.0436,-0.0414,-0.0429,-0.0433,-0.0579,-0.0581,-0.0583,-0.0471,0,0,0,0,0,0,-0.0146,-0.0153,-0.0157,-0.0196,-0.0207,-0.0251,-0.0252,-0.0259,-0.028,-0.0281,-0.0333,-0.0342,-0.0369,-0.0429,-0.0441,-0.0421,-0.0437,-0.0577,-0.058,-0.0583,-0.0473,-0.0469,-0.0465,0,0,0,0,0,-0.0142,-0.0151,-0.0157,-0.0164,-0.0211,-0.0252,-0.026,-0.0283,-0.0281,-0.0294,-0.0331,-0.034,-0.0454,-0.0434,-0.0448,-0.0428,-0.0576,-0.0579,-0.0582,-0.0475,-0.047,-0.0466,0,0,0,0,0,0,-0.0116,-0.0156,-0.0163,-0.0182,-0.0215,-0.0256,-0.0272,-0.0284,-0.0323,-0.0323,-0.0361,-0.0374,-0.0414,-0.0455,-0.0433,-0.0489,-0.0516,-0.0522,-0.043,-0.0426,-0.0422,-0.0375,-0.0441,0,0,0,0,0,-0.0113,-0.0131,-0.017,-0.0185,-0.0201,-0.0235,-0.0254,-0.0269,-0.0307,-0.0322,-0.0357,-0.0402,-0.0439,-0.0458,-0.0508,-0.0539,-0.0536,-0.0541,-0.0537,-0.0533,-0.0509,-0.0515,-0.0507,-0.0594,-0.0594,-0.0594,0,0,-0.0105,-0.013,-0.0139,-0.0181,-0.0207,-0.0215,-0.0245,-0.0274,-0.0271,-0.033,-0.0346,-0.0395,-0.0451,-0.048,-0.0501,-0.0507,-0.0503,-0.0537,-0.0532,-0.051,-0.0517,-0.0508,-0.0499,-0.0596,-0.0596,-0.0596,0,0,-0.0094,-0.0123,-0.013,-0.0154,-0.0193,-0.0211,-0.0217,-0.0259,-0.0272,-0.0305,-0.0337,-0.0372,-0.0443,-0.0458,-0.0478,-0.0492,-0.0489,-0.0519,-0.0447,-0.0452,-0.0443,-0.0436,-0.0383,-0.0372,-0.0508,-0.0508,-0.0508,0,-0.0078,-0.0086,-0.0139,-0.0146,-0.015,-0.0201,-0.0192,-0.0217,-0.0269,-0.027,-0.0302,-0.0372,-0.0421,-0.0422,-0.0425,-0.0473,-0.0464,-0.0445,-0.044,-0.0432,-0.0426,-0.0375,-0.0364,-0.0503,-0.0504,-0.0504,-0.0505,0,-0.0068,-0.0068,-0.0077,-0.009,-0.0109,-0.0116,-0.015,-0.0167,-0.0189,-0.0205,-0.0231,-0.0299,-0.0326,-0.0355,-0.039,-0.0371,-0.0371,-0.0432,-0.043,-0.0409,-0.0358,-0.0348,-0.0496,-0.0498,-0.0499,-0.05,0,0,-0.0029,-0.0058,-0.0055,-0.0041,-0.0074,-0.0082,-0.0083,-0.0089,-0.0065,-0.0128,-0.0093,-0.0169,-0.0195,-0.0221,-0.0269,-0.0276,-0.0217,-0.0324,-0.0327,-0.0232,-0.0179,-0.0153,-0.0139,-0.0276,-0.0275,-0.0274,-0.0145,0,0.0009,0.0026,-0.0002,0.0031,0.0044,0.0006,0.002,0.0005,-0.0014,-0.0002,-0.0059,-0.0058,-0.0146,-0.0141,-0.0165,-0.0202,-0.0193,-0.0243,-0.0249,-0.0247,-0.0195,-0.0129,-0.014,-0.0026,-0.0135,-0.0134,-0.0132,0,0.0048,0.0054,0.0095,0.0114,0.0117,0.0133,0.0159,0.0162,0.0157,0.0147,0.0132,0.0088,0.0093,-0.0004,-0.0024,-0.005,-0.01,-0.014,-0.0137,-0.0142,-0.0203,-0.0079,-0.0004,-0.024,-0.0117,-0.0119,-0.012,0,0.0123,0.0134,0.0178,0.018,0.0185,0.0207,0.0216,0.0216,0.0253,0.0261,0.0314,0.0258,0.0301,0.0197,0.013,0.0055,0.012,-0.0002,-0.0019,-0.0016,-0.004,-0.0041,-0.0161,-0.0023,-0.0023,-0.0024,-0.0024,0,0.0189,0.0225,0.022,0.0245,0.0309,0.0284,0.0362,0.0357,0.0401,0.0507,0.0413,0.0518,0.0352,0.0362,0.0221,0.0187,0.0199,0.0036,0.0022,-0.0001,-0.0,-0.0222,-0.0351,-0.0019,-0.002,-0.0021,-0.0022,0,0.027,0.0266,0.0319,0.0336,0.035,0.0398,0.0467,0.053,0.0563,0.071,0.0738,0.0762,0.0796,0.0644,0.0546,0.0373,0.018,0.0253,0.0277,0.026,-0.0039,-0.0159,-0.0215,-0.0287,0.0237,0.0239,0.024,0,0.0314,0.0349,0.0392,0.044,0.0455,0.0521,0.0582,0.0609,0.0711,0.0896,0.1005,0.1081,0.1188,0.1066,0.0776,0.0574,0.0323,0.0385,0.0201,-0.0013,-0.016,-0.0245,-0.031,0.0232,0.0233,0.0234,0.0235,0,0.04,0.0416,0.0456,0.0556,0.0628,0.0718,0.0825,0.0936,0.104,0.1205,0.1467,0.1571,0.1467,0.1295,0.0982,0.0772,0.0222,0.0395,0.0146,-0.0175,-0.0247,-0.0337,0.014,0.0243,0.0242,0.0241,0.0241,0.0241,0.0472,0.0524,0.0593,0.069,0.0782,0.0947,0.1064,0.1232,0.146,0.176,0.1824,0.2047,0.1682,0.1269,0.0963,0.0319,0.0321,0.0063,-0.0053,-0.011,-0.023,0.0305,0.0388,0.0388,0.0388,0.0388,0.0388,0,0.0577,0.0639,0.073,0.0867,0.1,0.1026,0.125,0.1407,0.1732,0.2027,0.2266,0.2231,0.1767,0.1216,0.0374,-0.0077,-0.0267,-0.0337,-0.0519,-0.0558,-0.0109,-0.0168,-0.0169,-0.0168,-0.0168,-0.0168,-0.0168,-0.0168,0.0648,0.0758,0.0802,0.1041,0.1147,0.1356,0.1503,0.176,0.2002,0.2381,0.2553,0.2642,0.2151,0.0664,-0.0384,-0.0618,-0.0924,-0.0947,-0.1084,-0.0881,-0.0856,-0.0832,-0.0922,-0.108,-0.1082,-0.1503,-0.1508,-0.1512]}],[{"header":{"parameterUnit":"m.s-1","parameterCategory":2,"la1":30.2991,"la2":30.254,"lo1":-89.0895,"lo2":-89.0444,"dy":0.0017,"dx":0.0017,"nx":28,"ny":28,"refTime":"2024-04-15T09:00:00:Z","depth":"2","parameterNumber":2,"parameterNumberName":"U-component_of_CURRENTS"},"data":[0,0,0,0,0,0,0,0,0,0,0,0,0,0,0,0,0,0,0,0,0,0,0,0,0,0,0,0,0,0,0,0,0,0,0,0,0,0,0,0,0,0,0,0,0,0,0,0,0,0,0,0,0,0,0,0,0,0,0.2469,0.2472,0,0.2578,0.2578,0.2577,0.2578,0.2578,0.2579,0.258,0.2671,0.2672,0.2674,0,0,0,0,0,0,0,0,0,0,0,0,0,0.2296,0.2297,0.2469,0.2473,0.2476,0.2578,0.2578,0.2577,0.2577,0.2578,0.2579,0.258,0.267,0.2672,0.2674,0,0,0,0,0,0,0,0,0,0,0,0,0,0.2362,0.2297,0.2468,0.2506,0.2513,0.2579,0.2578,0.2577,0.2577,0.2578,0.258,0.2581,0.267,0.2672,0.2674,0.2666,0,0,0.2682,0.2683,0,0,0,0,0,0,0,0,0.2358,0.2365,0.2497,0.2504,0.2512,0.2587,0.2552,0.2614,0.2577,0.2527,0.258,0.2581,0.2656,0.2659,0.2643,0.267,0.2674,0.2682,0.2684,0.2685,0.2686,0,0,0,0,0,0,0,0.2353,0.2361,0.2488,0.2502,0.2511,0.2532,0.2539,0.2561,0.2564,0.2532,0.2538,0.2588,0.2656,0.2641,0.2646,0.2675,0.2682,0.2684,0.2686,0.2687,0.2849,0.2852,0,0,0,0,0,0,0.2385,0.2356,0.2485,0.2494,0.2463,0.2536,0.2543,0.2542,0.2565,0.2577,0.2587,0.2588,0.2636,0.2643,0.2649,0.2795,0.2685,0.2687,0.2689,0.2846,0.285,0.2853,0,0,0,0,0,0,0.238,0.2393,0.2481,0.245,0.2466,0.254,0.2537,0.2544,0.2564,0.2612,0.2618,0.2608,0.2637,0.2646,0.2698,0.2793,0.2688,0.2691,0.2843,0.2847,0.2851,0.2989,0,0,0,0,0,0,0.2373,0.2388,0.2406,0.245,0.247,0.2561,0.2539,0.2546,0.2603,0.2605,0.2631,0.2638,0.2639,0.2695,0.2701,0.2795,0.2693,0.2839,0.2845,0.285,0.2981,0.2997,0.3011,0,0,0,0,0,0.2365,0.2427,0.2404,0.2423,0.2485,0.2566,0.2575,0.2616,0.2603,0.2629,0.2637,0.2639,0.2734,0.2698,0.2705,0.2802,0.2837,0.2843,0.2849,0.2974,0.2994,0.3011,0,0,0,0,0,0,0.2373,0.2435,0.2412,0.2486,0.253,0.2576,0.2656,0.2632,0.2651,0.2675,0.2656,0.2665,0.276,0.2746,0.2707,0.2863,0.2794,0.2802,0.2887,0.2905,0.292,0.2902,0.2695,0,0,0,0,0,0.2376,0.2422,0.2472,0.2527,0.2579,0.2599,0.2642,0.2657,0.2691,0.2699,0.2714,0.2742,0.2784,0.2814,0.2851,0.2916,0.2913,0.2988,0.3003,0.3016,0.3006,0.3049,0.3067,0.2873,0.2873,0.2873,0,0,0.2382,0.2441,0.2454,0.2531,0.2585,0.2655,0.2625,0.2729,0.2756,0.2711,0.2778,0.2803,0.2812,0.2903,0.2945,0.2907,0.3085,0.3024,0.3036,0.3018,0.3058,0.3076,0.3093,0.2878,0.2877,0.2876,0,0,0.2479,0.2491,0.258,0.2622,0.2738,0.2747,0.2779,0.2839,0.2852,0.2904,0.2894,0.2955,0.3009,0.3036,0.3051,0.3164,0.3167,0.3202,0.3266,0.3309,0.3325,0.3339,0.342,0.344,0.3206,0.3207,0.3207,0,0.2483,0.2569,0.2619,0.2728,0.2764,0.2789,0.2858,0.2888,0.2936,0.2952,0.2961,0.3045,0.3072,0.3145,0.3198,0.3204,0.3231,0.3198,0.3329,0.3342,0.3353,0.3433,0.3452,0.3214,0.3213,0.3212,0.3212,0,0.265,0.2694,0.2777,0.2872,0.2921,0.2996,0.3043,0.3089,0.3105,0.3114,0.3204,0.3228,0.3264,0.3314,0.3293,0.34,0.3399,0.3348,0.328,0.3381,0.3459,0.3478,0.3224,0.3222,0.322,0.3218,0,0,0.2689,0.2838,0.2862,0.2882,0.298,0.3031,0.3115,0.3167,0.3211,0.3279,0.3321,0.3418,0.3423,0.3437,0.3441,0.3488,0.363,0.3462,0.3461,0.3541,0.3766,0.3625,0.3631,0.3602,0.3604,0.3606,0.381,0,0.2775,0.2929,0.2988,0.3072,0.3129,0.3151,0.3206,0.3262,0.3306,0.3369,0.3416,0.3479,0.3471,0.3506,0.3557,0.3604,0.3674,0.3581,0.3656,0.3659,0.3517,0.3644,0.3323,0.3462,0.3827,0.383,0.3832,0,0.2915,0.2978,0.3067,0.3109,0.3145,0.3192,0.3251,0.3307,0.3403,0.344,0.3513,0.3547,0.3648,0.3608,0.3754,0.3698,0.3745,0.378,0.3787,0.3604,0.3548,0.3408,0.348,0.3861,0.3859,0.3857,0.3855,0,0.2898,0.3023,0.3061,0.308,0.3161,0.3195,0.3238,0.333,0.3384,0.3484,0.355,0.3643,0.3715,0.3779,0.3878,0.3824,0.4033,0.3958,0.3885,0.3878,0.3587,0.3547,0.4053,0.4052,0.4052,0.4051,0.4051,0,0.2933,0.2971,0.3054,0.307,0.312,0.3186,0.3255,0.3317,0.342,0.35,0.3578,0.3661,0.376,0.3887,0.3934,0.3989,0.4088,0.392,0.3915,0.3632,0.3596,0.3897,0.3876,0.4059,0.4057,0.4056,0.4054,0,0.2912,0.2964,0.3012,0.3087,0.3113,0.3154,0.3256,0.3315,0.3418,0.3527,0.3568,0.3724,0.3863,0.3977,0.4114,0.406,0.4123,0.4116,0.38,0.3749,0.3929,0.3913,0.4034,0.4031,0.4028,0.4025,0.4023,0,0.2912,0.2933,0.301,0.3036,0.3069,0.3135,0.3184,0.3293,0.3358,0.3558,0.3609,0.379,0.3858,0.4024,0.3978,0.4029,0.4135,0.3748,0.3542,0.3941,0.3926,0.3914,0.3903,0.3265,0.3257,0.325,0.3245,0,0.2887,0.2918,0.2952,0.2994,0.3043,0.3097,0.3176,0.3224,0.3365,0.3456,0.3603,0.3677,0.3791,0.3654,0.369,0.3668,0.3695,0.3607,0.4137,0.3286,0.3221,0.3204,0.3217,0.3186,0.3192,0.3196,0.3199,0.3202,0.2863,0.2869,0.2906,0.294,0.3004,0.3039,0.3033,0.3097,0.3165,0.319,0.3401,0.335,0.3386,0.3204,0.317,0.3138,0.3355,0.3196,0.3215,0.3241,0.3081,0.3011,0.2912,0.2916,0.2919,0.2923,0.2925,0,0.2778,0.2803,0.2844,0.2868,0.2882,0.2964,0.3008,0.2907,0.2886,0.2921,0.2933,0.2659,0.2571,0.2662,0.2496,0.2493,0.2458,0.242,0.2347,0.2408,0.2461,0.2259,0.1873,0.187,0.1867,0.1865,0,0,0.2737,0.2711,0.2721,0.2716,0.2765,0.2694,0.2692,0.2534,0.2469,0.2282,0.2208,0.2295,0.2491,0.2089,0.2082,0.1956,0.2156,0.1881,0.2723,0.2692,0.2741,0.2909,0.2666,0,0,0,0,0]},{"header":{"parameterUnit":"m.s-1","parameterCategory":2,"la1":30.2991,"la2":30.254,"lo1":-89.0895,"lo2":-89.0444,"dy":0.0017,"dx":0.0017,"nx":28,"ny":28,"refTime":"2024-04-15T09:00:00:Z","depth":"2","parameterNumber":3,"parameterNumberName":"V-component_of_CURRENTS"},"data":[0,0,0,0,0,0,0,0,0,0,0,0,0,0,0,0,0,0,0,0,0,0,0,0,0,0,0,0,0,0,0,0,0,0,0,0,0,0,0,0,0,0,0,0,0,0,0,0,0,0,0,0,0,0,0,0,0,0,-0.0206,-0.0207,0,-0.0285,-0.0285,-0.0285,-0.0312,-0.0313,-0.0313,-0.0314,-0.0471,-0.0474,-0.0478,0,0,0,0,0,0,0,0,0,0,0,0,0,-0.0128,-0.0128,-0.0205,-0.0208,-0.021,-0.0285,-0.0285,-0.0285,-0.0312,-0.0313,-0.0314,-0.0315,-0.047,-0.0474,-0.0478,0,0,0,0,0,0,0,0,0,0,0,0,0,-0.0168,-0.0128,-0.0205,-0.0241,-0.0246,-0.0286,-0.0285,-0.0285,-0.0311,-0.0313,-0.0314,-0.0315,-0.0468,-0.0473,-0.0478,-0.0485,0,0,-0.0494,-0.0496,0,0,0,0,0,0,0,0,-0.0165,-0.0169,-0.0234,-0.0239,-0.0245,-0.0301,-0.0316,-0.036,-0.0311,-0.0273,-0.0314,-0.0316,-0.0429,-0.0437,-0.043,-0.0493,-0.05,-0.0495,-0.0498,-0.05,-0.0501,0,0,0,0,0,0,0,-0.0163,-0.0166,-0.0224,-0.0236,-0.0243,-0.0273,-0.0278,-0.0324,-0.0335,-0.0277,-0.0282,-0.0311,-0.0431,-0.0425,-0.0435,-0.0502,-0.0494,-0.0499,-0.0502,-0.0504,-0.0682,-0.0683,0,0,0,0,0,0,-0.0174,-0.0163,-0.0222,-0.0228,-0.0222,-0.0274,-0.0279,-0.0271,-0.0333,-0.0346,-0.031,-0.0312,-0.0416,-0.0429,-0.0441,-0.0509,-0.05,-0.0505,-0.0508,-0.068,-0.0682,-0.0684,0,0,0,0,0,0,-0.0171,-0.0177,-0.0219,-0.021,-0.0219,-0.0275,-0.0266,-0.0273,-0.0281,-0.0359,-0.0372,-0.0315,-0.0417,-0.0433,-0.0492,-0.0514,-0.0507,-0.0512,-0.0678,-0.0681,-0.0683,-0.0611,0,0,0,0,0,0,-0.0168,-0.0174,-0.0173,-0.0209,-0.022,-0.0252,-0.0266,-0.0274,-0.0303,-0.0306,-0.0368,-0.0382,-0.0419,-0.0484,-0.0497,-0.0521,-0.0516,-0.0676,-0.0679,-0.0682,-0.0611,-0.061,-0.061,0,0,0,0,0,-0.0164,-0.0177,-0.0171,-0.018,-0.0215,-0.0254,-0.026,-0.0297,-0.0302,-0.0306,-0.0347,-0.0381,-0.0514,-0.0488,-0.0503,-0.0529,-0.0675,-0.0679,-0.0682,-0.0611,-0.0611,-0.061,0,0,0,0,0,0,-0.0149,-0.0183,-0.0177,-0.0198,-0.0225,-0.0264,-0.03,-0.0297,-0.0326,-0.035,-0.0386,-0.0404,-0.0471,-0.0512,-0.0482,-0.0596,-0.0607,-0.0614,-0.0548,-0.0548,-0.0547,-0.0469,-0.052,0,0,0,0,0,-0.0141,-0.015,-0.0185,-0.0198,-0.0227,-0.0252,-0.0274,-0.0294,-0.0333,-0.0345,-0.0388,-0.0448,-0.0494,-0.0528,-0.0587,-0.0634,-0.0625,-0.067,-0.0669,-0.0668,-0.0619,-0.0622,-0.0615,-0.0696,-0.0696,-0.0696,0,0,-0.0136,-0.0162,-0.0164,-0.0196,-0.023,-0.0254,-0.0266,-0.032,-0.0324,-0.0363,-0.0403,-0.0451,-0.0509,-0.0565,-0.06,-0.0602,-0.0648,-0.0673,-0.0671,-0.0621,-0.0625,-0.0616,-0.0608,-0.0699,-0.0698,-0.0698,0,0,-0.0148,-0.0163,-0.0178,-0.02,-0.0263,-0.0281,-0.0293,-0.034,-0.0355,-0.039,-0.0424,-0.0459,-0.0552,-0.057,-0.0594,-0.0624,-0.0646,-0.0683,-0.0609,-0.0614,-0.0605,-0.0597,-0.0586,-0.0578,-0.0679,-0.0679,-0.0679,0,-0.014,-0.0146,-0.019,-0.0217,-0.0232,-0.0287,-0.0295,-0.0323,-0.0373,-0.0362,-0.0412,-0.0475,-0.0539,-0.0541,-0.0558,-0.0616,-0.0618,-0.0599,-0.0605,-0.0597,-0.059,-0.0581,-0.0573,-0.0676,-0.0677,-0.0677,-0.0677,0,-0.016,-0.016,-0.0189,-0.0215,-0.0239,-0.0268,-0.0313,-0.0335,-0.0365,-0.0364,-0.0388,-0.0454,-0.0465,-0.0523,-0.0546,-0.0535,-0.0554,-0.06,-0.0586,-0.0576,-0.057,-0.0562,-0.0672,-0.0673,-0.0674,-0.0675,0,0,-0.0137,-0.0181,-0.0184,-0.0166,-0.0232,-0.024,-0.0275,-0.0273,-0.0241,-0.0316,-0.0258,-0.0349,-0.0351,-0.0376,-0.0425,-0.0434,-0.0407,-0.0487,-0.0489,-0.0438,-0.0402,-0.0452,-0.0449,-0.0457,-0.0455,-0.0454,-0.042,0,-0.0124,-0.0128,-0.0164,-0.0148,-0.0149,-0.0189,-0.0184,-0.0194,-0.0214,-0.0187,-0.0235,-0.0225,-0.031,-0.0303,-0.0325,-0.038,-0.0382,-0.041,-0.0451,-0.045,-0.0465,-0.044,-0.0411,-0.0381,-0.0412,-0.0411,-0.041,0,-0.0113,-0.0115,-0.0086,-0.0056,-0.0061,-0.0052,-0.0017,-0.0023,-0.0013,-0.0019,-0.0017,-0.0055,-0.0056,-0.0148,-0.0197,-0.0213,-0.0283,-0.034,-0.0341,-0.0391,-0.0485,-0.04,-0.0366,-0.0397,-0.0398,-0.0399,-0.04,0,-0.0035,-0.0043,0.0003,0.0004,0.0005,0.0036,0.0041,0.0051,0.0083,0.0109,0.0152,0.0116,0.0125,0.0031,-0.0096,-0.0139,-0.0156,-0.0239,-0.0343,-0.0347,-0.0327,-0.0333,-0.0258,-0.0258,-0.0258,-0.0258,-0.0258,0,0.002,0.006,0.0057,0.0085,0.0156,0.013,0.0215,0.0216,0.0255,0.0329,0.0268,0.0318,0.017,0.0123,-0.0019,-0.014,-0.0097,-0.0291,-0.0332,-0.0309,-0.0313,-0.0335,-0.0344,-0.0257,-0.0257,-0.0257,-0.0257,0,0.0111,0.0109,0.0164,0.0185,0.0201,0.0257,0.0312,0.0372,0.0405,0.05,0.0521,0.0497,0.0437,0.0281,0.0141,-0.002,-0.015,-0.0209,-0.0165,-0.0202,-0.0355,-0.0362,-0.0305,-0.0306,-0.0307,-0.0308,-0.0309,0,0.0164,0.0199,0.0242,0.0278,0.0294,0.0363,0.0413,0.0446,0.0505,0.0608,0.0663,0.0653,0.0655,0.0441,0.0163,-0.0062,-0.0117,-0.0208,-0.0297,-0.0308,-0.0354,-0.036,-0.0365,-0.0243,-0.0243,-0.0243,-0.0243,0,0.0236,0.0253,0.028,0.034,0.0403,0.0484,0.0556,0.0625,0.0684,0.0795,0.0899,0.0925,0.0741,0.052,0.0196,0.002,-0.0178,-0.0222,-0.0208,-0.0256,-0.0253,-0.0298,-0.0304,-0.0244,-0.0244,-0.0244,-0.0244,-0.0244,0.0272,0.0293,0.0304,0.0371,0.0453,0.0551,0.0629,0.0745,0.0871,0.1046,0.1048,0.112,0.086,0.0458,0.0163,-0.0171,-0.0178,-0.0308,-0.0305,-0.0303,-0.0322,-0.0324,-0.033,-0.033,-0.0331,-0.0331,-0.0331,0,0.0249,0.0256,0.0321,0.0376,0.0471,0.0528,0.0676,0.0805,0.0986,0.1163,0.1291,0.107,0.0835,0.0531,0.0039,-0.0261,-0.0281,-0.0353,-0.0308,-0.0305,-0.0303,-0.0322,-0.0329,-0.033,-0.0331,-0.0331,0,0,0.0221,0.0222,0.0243,0.034,0.0425,0.058,0.0683,0.0932,0.1103,0.13,0.1355,0.1372,0.0969,0.0613,0.0222,-0.0047,-0.0109,-0.0105,-0.0076,0.0027,0.0033,-0.0249,-0.0272,0,0,0,0,0]}],[{"header":{"parameterUnit":"m.s-1","parameterCategory":2,"la1":30.2991,"la2":30.254,"lo1":-89.0895,"lo2":-89.0444,"dy":0.0017,"dx":0.0017,"nx":28,"ny":28,"refTime":"2024-04-15T09:00:00:Z","depth":"4","parameterNumber":2,"parameterNumberName":"U-component_of_CURRENTS"},"data":[0,0,0,0,0,0,0,0,0,0,0,0,0,0,0,0,0,0,0,0,0,0,0,0,0,0,0,0,0,0,0,0,0,0,0,0,0,0,0,0,0,0,0,0,0,0,0,0,0,0,0,0,0,0,0,0,0,0,0.1017,0.1017,0,0.1032,0.1033,0.1033,0.1093,0.1094,0.1095,0.1095,0.1125,0.1125,0.1125,0,0,0,0,0,0,0,0,0,0,0,0,0,0.1049,0.1049,0.1017,0.1017,0.1016,0.1032,0.1033,0.1034,0.1093,0.1094,0.1095,0.1096,0.1125,0.1125,0.1126,0,0,0,0,0,0,0,0,0,0,0,0,0,0.1054,0.1049,0.1017,0.1043,0.1045,0.1032,0.1033,0.1034,0.1093,0.1094,0.1095,0.1096,0.1125,0.1125,0.1126,0.1105,0,0,0.1126,0.1126,0,0,0,0,0,0,0,0,0.1053,0.1053,0.1039,0.1041,0.1043,0.1056,0.1055,0.1056,0.1093,0.1082,0.1095,0.1097,0.1098,0.11,0.1111,0.1106,0.1108,0.1126,0.1126,0.1126,0.1126,0,0,0,0,0,0,0,0.1053,0.1053,0.1031,0.1039,0.1041,0.1055,0.1058,0.1056,0.109,0.1083,0.1086,0.1076,0.11,0.111,0.1112,0.1108,0.1126,0.1126,0.1126,0.1126,0.1238,0.1241,0,0,0,0,0,0,0.1035,0.1052,0.103,0.103,0.1043,0.1053,0.1057,0.1056,0.1089,0.1093,0.1075,0.1078,0.111,0.1111,0.1113,0.1167,0.1126,0.1126,0.1127,0.1235,0.1239,0.1242,0,0,0,0,0,0,0.1036,0.1033,0.1029,0.1036,0.1035,0.1051,0.105,0.1056,0.1087,0.1081,0.1087,0.1101,0.1111,0.1113,0.1138,0.1166,0.1127,0.1127,0.1232,0.1236,0.124,0.1226,0,0,0,0,0,0,0.1037,0.1034,0.1043,0.1034,0.1034,0.1019,0.1049,0.1055,0.1074,0.108,0.1105,0.1108,0.1112,0.1138,0.1139,0.1165,0.1127,0.1228,0.1234,0.1239,0.1222,0.1229,0.1234,0,0,0,0,0,0.1038,0.1013,0.1044,0.1041,0.1041,0.1018,0.102,0.104,0.1074,0.1077,0.1115,0.1109,0.1174,0.1139,0.1139,0.1167,0.1226,0.1232,0.1239,0.122,0.1228,0.1234,0,0,0,0,0,0,0.103,0.1016,0.1049,0.1026,0.1031,0.1025,0.102,0.1049,0.1082,0.1102,0.1118,0.1123,0.1161,0.1175,0.1137,0.1226,0.121,0.1216,0.1196,0.1203,0.1209,0.129,0.1127,0,0,0,0,0,0.1034,0.1021,0.1019,0.1009,0.1005,0.1028,0.1029,0.105,0.1065,0.1083,0.1112,0.1155,0.1184,0.1201,0.1224,0.1252,0.1292,0.1285,0.1291,0.1295,0.1369,0.1427,0.1444,0.1263,0.1263,0.1263,0,0,0.102,0.1021,0.1009,0.1008,0.1016,0.1016,0.1033,0.1032,0.1067,0.1078,0.1141,0.1163,0.1198,0.1237,0.1259,0.1252,0.1361,0.1303,0.1306,0.138,0.1435,0.1453,0.1468,0.1267,0.1267,0.1266,0,0,0.098,0.0996,0.0974,0.0978,0.0989,0.1009,0.1014,0.1034,0.1078,0.1131,0.1158,0.1222,0.1254,0.1301,0.1324,0.1386,0.1384,0.1379,0.1473,0.1524,0.154,0.1554,0.1582,0.1599,0.1387,0.1387,0.1387,0,0.0977,0.0972,0.0965,0.0956,0.098,0.1009,0.1024,0.1051,0.1094,0.115,0.1159,0.129,0.1307,0.1384,0.1425,0.14,0.1418,0.1421,0.1529,0.1544,0.1559,0.1585,0.1604,0.1387,0.1387,0.1387,0.1387,0,0.0919,0.0942,0.0924,0.0948,0.0966,0.0976,0.1016,0.1049,0.1125,0.1193,0.1306,0.1354,0.1447,0.1451,0.1465,0.1577,0.1548,0.1512,0.1498,0.1576,0.1599,0.1618,0.1387,0.1387,0.1387,0.1387,0,0,0.0857,0.0888,0.0892,0.0934,0.0983,0.0988,0.1039,0.112,0.1182,0.1274,0.1389,0.149,0.1556,0.1597,0.1608,0.1685,0.1781,0.1661,0.1664,0.1671,0.1881,0.1736,0.1743,0.1739,0.1744,0.1748,0.1837,0,0.0844,0.0863,0.0887,0.0936,0.0961,0.1014,0.107,0.1148,0.1238,0.1339,0.1457,0.1575,0.1591,0.1653,0.1727,0.1778,0.1842,0.1761,0.1829,0.1833,0.1677,0.1766,0.1762,0.1852,0.1857,0.186,0.1862,0,0.0792,0.0832,0.0889,0.0985,0.1,0.1042,0.1159,0.1208,0.1339,0.1436,0.1573,0.1647,0.1812,0.1798,0.196,0.1897,0.1925,0.1956,0.1957,0.1865,0.1728,0.1777,0.1898,0.1895,0.1893,0.189,0.1888,0,0.0768,0.0835,0.0911,0.0934,0.1026,0.1082,0.1146,0.1261,0.133,0.1519,0.1613,0.1777,0.1886,0.197,0.2046,0.2014,0.2189,0.2123,0.2018,0.2005,0.2109,0.2094,0.2249,0.2249,0.2249,0.2248,0.2248,0,0.0744,0.0784,0.0914,0.0935,0.1027,0.1105,0.1214,0.1283,0.1426,0.1527,0.1682,0.1784,0.1944,0.203,0.2081,0.2116,0.2209,0.209,0.2043,0.2093,0.2076,0.2119,0.2103,0.2252,0.2251,0.225,0.225,0,0.0665,0.0753,0.0815,0.0952,0.1009,0.1065,0.1222,0.1273,0.1449,0.1572,0.1651,0.1833,0.1976,0.2067,0.2204,0.2147,0.22,0.2174,0.2237,0.2181,0.1972,0.1955,0.2091,0.2087,0.2084,0.2081,0.2079,0,0.0623,0.065,0.0804,0.0844,0.0908,0.1029,0.1093,0.1271,0.1329,0.1579,0.1613,0.1816,0.1922,0.2004,0.2116,0.2188,0.2158,0.2147,0.2088,0.2029,0.1969,0.1956,0.1943,0.2074,0.2073,0.2072,0.2071,0,0.0519,0.0582,0.0642,0.0732,0.0814,0.0901,0.1018,0.1069,0.1265,0.1436,0.1573,0.1683,0.1822,0.1934,0.1993,0.2036,0.2144,0.2113,0.212,0.2064,0.2009,0.195,0.1941,0.206,0.2061,0.2062,0.2063,0,0.0441,0.0451,0.0539,0.0608,0.0679,0.0737,0.0839,0.095,0.1057,0.1331,0.1372,0.1611,0.1787,0.1856,0.1917,0.195,0.1933,0.1856,0.1875,0.1889,0.1785,0.1683,0.164,0,0,0,0,0,0.037,0.0371,0.0406,0.0484,0.0534,0.0601,0.075,0.0861,0.1073,0.1118,0.125,0.1386,0.1547,0.1668,0.1669,0.1826,0.1918,0.1815,0.1831,0.1997,0.201,0.1908,0,0,0,0,0,0,0.0318,0.0343,0.0369,0.0352,0.0381,0.045,0.0548,0.0709,0.0757,0.0986,0.1084,0.1268,0.1441,0.1525,0.163,0.1664,0.1639,0.196,0.1956,0.199,0.2002,0.2012,0.1912,0,0,0,0,0]},{"header":{"parameterUnit":"m.s-1","parameterCategory":2,"la1":30.2991,"la2":30.254,"lo1":-89.0895,"lo2":-89.0444,"dy":0.0017,"dx":0.0017,"nx":28,"ny":28,"refTime":"2024-04-15T09:00:00:Z","depth":"4","parameterNumber":3,"parameterNumberName":"V-component_of_CURRENTS"},"data":[0,0,0,0,0,0,0,0,0,0,0,0,0,0,0,0,0,0,0,0,0,0,0,0,0,0,0,0,0,0,0,0,0,0,0,0,0,0,0,0,0,0,0,0,0,0,0,0,0,0,0,0,0,0,0,0,0,0,0.0145,0.0145,0,0.0156,0.0155,0.0155,0.0112,0.0111,0.011,0.0109,0.0098,0.0098,0.0099,0,0,0,0,0,0,0,0,0,0,0,0,0,0.0071,0.0073,0.0144,0.0145,0.0146,0.0156,0.0155,0.0155,0.0112,0.0111,0.011,0.0109,0.0098,0.0098,0.0099,0,0,0,0,0,0,0,0,0,0,0,0,0,0.009,0.0073,0.0144,0.0129,0.0128,0.0156,0.0155,0.0155,0.0112,0.0111,0.0109,0.0108,0.0098,0.0098,0.0099,0.0128,0,0,0.0101,0.0101,0,0,0,0,0,0,0,0,0.0089,0.0092,0.0131,0.013,0.0129,0.0136,0.0126,0.0147,0.0112,0.0113,0.0109,0.0108,0.0113,0.0112,0.011,0.0127,0.0127,0.0101,0.0102,0.0102,0.0102,0,0,0,0,0,0,0,0.0088,0.0091,0.0144,0.0132,0.0131,0.0117,0.0118,0.0129,0.0115,0.0112,0.0111,0.0121,0.0111,0.0109,0.0109,0.0126,0.0101,0.0102,0.0102,0.0102,0.017,0.0171,0,0,0,0,0,0,0.0099,0.0091,0.0143,0.0144,0.0112,0.012,0.0121,0.0131,0.0115,0.0113,0.0122,0.0119,0.0109,0.0109,0.0109,0.0152,0.0102,0.0102,0.0103,0.0169,0.017,0.0172,0,0,0,0,0,0,0.0098,0.0104,0.0143,0.0122,0.0126,0.0123,0.0134,0.0132,0.0138,0.0124,0.012,0.0133,0.0108,0.0108,0.0131,0.015,0.0103,0.0103,0.0167,0.0169,0.0171,0.0231,0,0,0,0,0,0,0.0096,0.0103,0.0122,0.0123,0.0128,0.0183,0.0136,0.0133,0.0148,0.0144,0.0132,0.0129,0.0107,0.0131,0.0132,0.015,0.0104,0.0165,0.0168,0.017,0.0228,0.0235,0.0242,0,0,0,0,0,0.0093,0.0134,0.0122,0.0129,0.0151,0.0186,0.0188,0.0176,0.015,0.0173,0.0155,0.013,0.0147,0.0133,0.0134,0.0153,0.0164,0.0167,0.017,0.0224,0.0234,0.0241,0,0,0,0,0,0,0.0114,0.0134,0.0121,0.0165,0.0182,0.0181,0.0209,0.0191,0.0193,0.019,0.0155,0.0153,0.0178,0.0165,0.0149,0.0181,0.0149,0.0153,0.019,0.0199,0.0206,0.0201,0.0104,0,0,0,0,0,0.0128,0.016,0.0171,0.0207,0.0222,0.0214,0.0227,0.0221,0.0222,0.0221,0.0202,0.0191,0.0193,0.0195,0.0197,0.0223,0.0168,0.0234,0.0241,0.0247,0.0245,0.0172,0.0171,0.0182,0.0182,0.0182,0,0,0.0147,0.0162,0.018,0.0214,0.0224,0.0256,0.0219,0.0256,0.0273,0.0223,0.024,0.0222,0.0208,0.0229,0.0238,0.0219,0.0218,0.0251,0.0256,0.025,0.0174,0.0173,0.0171,0.0184,0.0184,0.0183,0,0,0.0208,0.0216,0.0265,0.0284,0.0316,0.0307,0.0322,0.0327,0.0324,0.0347,0.0306,0.0298,0.0309,0.0286,0.028,0.0332,0.0261,0.0337,0.0365,0.0294,0.0292,0.0289,0.0221,0.0212,0.0336,0.0336,0.0336,0,0.0227,0.028,0.0286,0.0336,0.0351,0.0332,0.0375,0.0381,0.0385,0.0379,0.0367,0.0342,0.0333,0.033,0.0345,0.0346,0.0291,0.0332,0.03,0.0296,0.0292,0.0223,0.0212,0.0339,0.0339,0.0338,0.0338,0,0.0326,0.0358,0.0394,0.0432,0.0453,0.0493,0.0495,0.05,0.0482,0.0469,0.0467,0.044,0.0415,0.0415,0.04,0.0373,0.0338,0.0318,0.0272,0.0294,0.0221,0.0208,0.0344,0.0343,0.0342,0.0341,0,0,0.0382,0.0446,0.0456,0.0471,0.0502,0.0523,0.0552,0.056,0.0558,0.0552,0.0537,0.0536,0.0495,0.0485,0.0451,0.0394,0.0326,0.0349,0.0343,0.0271,0.0161,0.0166,0.0152,0.0289,0.0287,0.0285,0.0121,0,0.0447,0.0533,0.055,0.0605,0.0637,0.0619,0.0642,0.0642,0.0624,0.0606,0.0567,0.0557,0.0532,0.0513,0.0456,0.0354,0.0294,0.0372,0.016,0.0154,0.0146,0.0138,0.028,0.0111,0.0108,0.0106,0.0104,0,0.0535,0.057,0.0645,0.0659,0.0674,0.0704,0.0696,0.0718,0.0693,0.0681,0.0645,0.0602,0.0537,0.051,0.0339,0.0384,0.0285,0.0202,0.0193,0.0166,0.0135,0.0085,0.008,0.0082,0.0084,0.0085,0.0087,0,0.0554,0.0624,0.0674,0.069,0.0722,0.074,0.0749,0.074,0.0754,0.0722,0.0709,0.0621,0.057,0.0436,0.0284,0.0298,0.0074,0.0069,-0.0021,-0.0022,-0.0007,-0.0002,-0.0056,-0.0056,-0.0055,-0.0055,-0.0054,0,0.0596,0.0632,0.0691,0.0716,0.0761,0.0777,0.0818,0.0805,0.0805,0.0814,0.0753,0.0715,0.0545,0.0405,0.027,0.0082,0.0059,-0.0024,-0.0066,0.0025,0.0035,-0.0017,-0.001,-0.0061,-0.006,-0.0058,-0.0057,0,0.0602,0.0648,0.0705,0.0757,0.0776,0.0813,0.087,0.0894,0.0888,0.0888,0.088,0.0761,0.0581,0.0401,0.0159,0.0066,-0.0114,-0.0172,-0.0068,-0.01,-0.0161,-0.0149,-0.0294,-0.0295,-0.0296,-0.0297,-0.0298,0,0.0611,0.0643,0.0733,0.0779,0.081,0.0875,0.092,0.0937,0.0959,0.0912,0.09,0.0739,0.0644,0.0301,0.012,-0.015,-0.0171,-0.0264,-0.0199,-0.016,-0.0188,-0.0174,-0.0161,-0.0299,-0.0299,-0.03,-0.03,0,0.061,0.0658,0.071,0.08,0.0868,0.0941,0.0997,0.1007,0.1019,0.1013,0.09,0.0739,0.0532,0.029,0.0078,-0.0105,-0.0204,-0.0275,-0.0273,-0.0213,-0.0169,-0.0192,-0.0177,-0.0304,-0.0303,-0.0303,-0.0303,0,0.0617,0.0657,0.0741,0.0815,0.0902,0.0969,0.1003,0.1015,0.1024,0.0963,0.0916,0.0715,0.0591,0.0311,0.0116,-0.0066,-0.0097,-0.0137,-0.0143,-0.0141,-0.0032,0.005,-0.0063,0,0,0,0,0,0.0615,0.0665,0.0742,0.0834,0.0919,0.097,0.1035,0.1064,0.106,0.0985,0.0952,0.0767,0.0474,0.0342,0.0158,0.0104,-0.0125,-0.0114,-0.0172,-0.0324,-0.0319,-0.0215,0,0,0,0,0,0,0.0621,0.0696,0.074,0.0833,0.0893,0.0987,0.103,0.1036,0.0991,0.0957,0.0796,0.0733,0.044,0.0573,0.0155,0.0102,0.0044,-0.0247,-0.0251,-0.0326,-0.0322,-0.0319,-0.021,0,0,0,0,0]}]]